7 * 24
多渠道服务支持
STARLINK-35255是美国SpaceX星链卫星互联网项目的卫星,于2025年9月13日发射。它是星链星座部署中的一员,延续了星链星座低轨运行、提供全球高速互联网接入的定位,服务覆盖偏远地区、海洋空域等网络匮乏区域,也将为美国军方提供相关通信支持,补充完善星链星座的服务能力。
美国
(US)
| 数据来源 | 国际轨道数据 |
| 星历时间: | 2026-09-12T12:00:02+0800 5小时前 查看轨道信息 |
| 半长轴: | 6912.686km |
| 偏心率: | 0.0001841 |
| 轨道倾角: | 97.284° |
| 近地点辐角 | 81.755° |
| 升交点赤经 | 317.986° |
| 平近点角 | 229.910° |
| 近地点: | 533.276km |
| 远地点: | 535.822km |
| 周期: | 95.330分钟 |
| 每日圈数: | 15.105412 |